"Time","Temp","Dewpoint","Humidity","Pressure","Direction","Speed","Gust","Precip","PrecipRate"
"00:04:56","34.4","30.4","85","30.10","321","0","0","0.00","0.00"
"00:09:58","34.4","30.4","85","30.10","321","0","0","0.00","0.00"
"00:14:56","34.3","30.3","85","30.10","321","0","0","0.00","0.00"
"00:19:58","34.2","30.2","85.2","30.10","321","0","0","0.00","0.00"
"00:24:59","33.9","30.2","85.8","30.10","321","0","0","0.00","0.00"
"00:29:57","33.9","30.2","86","30.10","321","0","0","0.00","0.00"
"00:34:59","33.9","30.2","86","30.10","321","0","0","0.00","0.00"
"00:39:56","33.9","30.1","85.7","30.10","321","0","0","0.00","0.00"
"00:44:58","33.7","29.7","85.1","30.11","321","0","0","0.00","0.00"
"00:49:59","33.4","29.6","85.7","30.11","321","0","0","0.00","0.00"
"00:54:57","33.2","29.5","86","30.11","321","0","0","0.00","0.00"
"00:59:59","33","29.5","86.8","30.11","321","0","0","0.00","0.00"
"01:04:57","32.8","29.4","87.1","30.11","321","0","0","0.00","0.00"
"01:09:56","32.6","29.4","88","30.11","321","0","0","0.00","0.00"
"01:14:59","32.4","29.2","88","30.11","321","0","0","0.00","0.00"
"01:19:57","32.3","29.3","88.5","30.11","321","0","0","0.00","0.00"
"01:24:59","32.2","29.3","89","30.11","321","0","0","0.00","0.00"
"01:29:56","32.2","29.3","89","30.11","321","0","0","0.00","0.00"
"01:34:58","32.2","29.4","89.5","30.11","321","0","0","0.00","0.00"
"01:39:59","32.2","29.6","90","30.11","321","0","0","0.00","0.00"
"01:44:57","32.3","29.4","89","30.12","321","0","0","0.00","0.00"
"01:49:58","32.3","29.3","88.8","30.12","321","0","0","0.00","0.00"
"01:54:56","32","28.9","88.2","30.12","321","0","0","0.00","0.00"
"01:59:58","31.8","28.9","89","30.12","321","0","0","0.00","0.00"
"02:04:57","31.7","28.8","89","30.12","320","0","0","0.00","0.00"
"02:09:56","31.5","28.6","89","30.12","320","0","0","0.00","0.00"
"02:14:58","31.4","28.7","89.8","30.12","320","0","0","0.00","0.00"
"02:19:56","31.4","28.8","90","30.12","320","0","0","0.00","0.00"
"02:24:57","31.3","28.7","90","30.12","320","0","0","0.00","0.00"
"02:29:59","31.3","29","90.9","30.12","320","0","0","0.00","0.00"
"02:34:57","31.3","29","91","30.12","320","0","0","0.00","0.00"
"02:39:59","31.3","28.8","90.3","30.12","320","0","0","0.00","0.00"
"02:44:57","31.2","28.6","90","30.12","320","0","0","0.00","0.00"
"02:49:58","31","28.4","90","30.12","320","0","0","0.00","0.00"
"02:54:56","30.8","28.2","90","30.12","320","0","0","0.00","0.00"
"02:59:57","30.7","28.2","90.2","30.12","320","0","0","0.00","0.00"
"03:04:59","30.7","28.4","91","30.12","320","0","0","0.00","0.00"
"03:09:59","30.7","28.4","91","30.12","320","0","0","0.00","0.00"
"03:14:57","30.6","28.1","90.2","30.12","320","0","0","0.00","0.00"
"03:19:59","30.4","27.8","90","30.12","320","0","0","0.00","0.00"
"03:24:56","30.3","27.8","90.6","30.12","320","0","0","0.00","0.00"
"03:29:58","30.1","27.8","91","30.13","320","0","0","0.00","0.00"
"03:34:59","30","27.7","91","30.13","321","0","0","0.00","0.00"
"03:39:57","29.9","27.6","91","30.13","320","0","0","0.00","0.00"
"03:44:59","29.7","27.4","91","30.13","320","0","0","0.00","0.00"
"03:49:58","29.7","27.5","91.3","30.13","320","0","0","0.00","0.00"
"03:54:59","29.7","27.7","92","30.13","320","0","0","0.00","0.00"
"03:59:58","29.9","27.9","92","30.13","320","0","0","0.00","0.00"
"04:04:59","29.9","27.8","91.8","30.13","320","0","0","0.00","0.00"
"04:09:59","29.8","27.5","91.1","30.13","320","0","0","0.00","0.00"
"04:14:57","29.7","27.7","92","30.13","321","0","0","0.00","0.00"
"04:19:58","29.6","27.6","92","30.13","320","0","0","0.00","0.00"
"04:24:59","29.6","27.6","92","30.13","320","0","0","0.00","0.00"
"04:29:56","29.6","27.6","92","30.14","320","0","0","0.00","0.00"
"04:34:56","29.5","27.5","92","30.14","320","0","0","0.00","0.00"
"04:39:58","29.4","27.4","92","30.14","320","0","0","0.00","0.00"
"04:44:59","29.3","27.3","92","30.15","320","0","0","0.00","0.00"
"04:49:56","29.3","27.3","92","30.15","320","0","0","0.00","0.00"
"04:54:57","29.2","27.2","92","30.15","320","0","0","0.00","0.00"
"04:59:57","29.1","27.1","92","30.15","320","0","0","0.00","0.00"
"05:04:58","29.1","27.1","92.2","30.15","320","0","0","0.00","0.00"
"05:09:57","29","27.1","92.4","30.15","320","0","0","0.00","0.00"
"05:14:59","29","27.2","93","30.15","320","0","0","0.00","0.00"
"05:19:56","29","27.2","93","30.15","320","0","0","0.00","0.00"
"05:24:57","28.9","27","92.8","30.15","320","0","0","0.00","0.00"
"05:29:57","28.7","26.9","92.7","30.16","320","0","0","0.00","0.00"
"05:34:58","28.7","26.9","93","30.16","320","0","0","0.00","0.00"
"05:39:59","28.7","26.9","93","30.16","320","0","0","0.00","0.00"
"05:44:56","28.6","26.8","93","30.16","320","0","0","0.00","0.00"
"05:49:56","28.6","26.8","93","30.16","320","0","0","0.00","0.00"
"05:54:57","28.5","26.7","93","30.16","320","0","0","0.00","0.00"
"05:59:57","28.5","26.7","93","30.17","321","0","0","0.00","0.00"
"06:04:59","28.4","26.6","93","30.17","320","0","0","0.00","0.00"
"06:09:59","28.3","26.5","93","30.17","320","0","0","0.00","0.00"
"06:14:56","28.2","26.4","93","30.18","321","0","0","0.00","0.00"
"06:19:57","28.1","26.3","93","30.18","320","0","0","0.00","0.00"
"06:24:59","28","26.2","93","30.18","320","0","0","0.00","0.00"
"06:29:59","28","26.2","93","30.18","320","0","0","0.00","0.00"
"06:34:56","27.9","26.1","93","30.18","320","0","0","0.00","0.00"
"06:39:57","27.8","26","93","30.18","320","0","0","0.00","0.00"
"06:44:59","27.7","25.9","93","30.18","320","0","0","0.00","0.00"
"06:49:57","27.7","26","93.3","30.18","321","0","0","0.00","0.00"
"06:54:58","27.7","26.2","93.8","30.18","320","0","0","0.00","0.00"
"06:59:59","27.8","26.3","94","30.19","320","0","0","0.00","0.00"
"07:04:59","27.9","26.4","94","30.19","320","0","0","0.00","0.00"
"07:09:58","27.9","26.4","94","30.19","320","0","0","0.00","0.00"
"07:14:59","28.1","26.6","94","30.19","320","0","0","0.00","0.00"
"07:19:59","28.3","26.8","94","30.19","321","0","0","0.00","0.00"
"07:24:59","28.5","27","94","30.19","321","0","0","0.00","0.00"
"07:29:59","28.7","27.2","94","30.20","321","0","0","0.00","0.00"
"07:34:59","29.3","28","94.9","30.20","321","0","0","0.00","0.00"
"07:39:57","30","28.6","94.5","30.20","321","0","0","0.00","0.00"
"07:44:57","30.8","29.4","94.5","30.20","321","0","0","0.00","0.00"
"07:49:57","31.8","30.4","94.2","30.20","320","0","0","0.00","0.00"
"07:54:57","32.9","31.2","93.2","30.20","321","0","0","0.00","0.00"
"07:59:58","34.3","32.2","92.1","30.20","321","0","0","0.00","0.00"
"08:04:59","35.6","32.8","89.5","30.19","321","0","0","0.00","0.00"
"08:09:58","36.7","33.3","87.1","30.19","321","0","0","0.00","0.00"
"08:14:59","37.8","33.7","84.9","30.19","321","0","0","0.00","0.00"
"08:19:59","39.1","34.2","82.6","30.19","320","0","0","0.00","0.00"
"08:24:58","39.6","34.2","80.9","30.19","318","0","0","0.00","0.00"
"08:29:59","40.5","35","80.6","30.20","224","0.1","1.2","0.00","0.00"
"08:34:59","41.5","35.4","78.7","30.20","224","0.2","1.2","0.00","0.00"
"08:39:56","42.7","35.6","75.9","30.20","224","0.4","2.4","0.00","0.00"
"08:44:56","43.6","36.2","74.9","30.20","224","0","1.2","0.00","0.00"
"08:49:56","44.8","36.7","73.1","30.20","223","0.9","3.6","0.00","0.00"
"08:54:56","45.5","36.7","71.2","30.20","223","1.4","2.4","0.00","0.00"
"08:59:56","46.3","37.6","71.3","30.20","224","0","0","0.00","0.00"
"09:04:57","47.5","38.2","70","30.19","224","0","0","0.00","0.00"
"09:09:56","48.7","38.6","68.1","30.19","224","0","0","0.00","0.00"
"09:14:58","49.4","38.7","66.5","30.20","223","0","1.2","0.00","0.00"
"09:19:58","50.3","39.1","65.2","30.20","207","0.7","3.6","0.00","0.00"
"09:24:58","50.7","38.7","63.3","30.20","207","0.3","2.3","0.00","0.00"
"09:29:58","51.9","39.5","62.5","30.20","207","0","0","0.00","0.00"
"09:34:58","53.2","39.5","59.7","30.20","207","0","0","0.00","0.00"
"09:39:59","53.6","39.2","58","30.20","209","0.3","4.8","0.00","0.00"
"09:44:58","54.2","39.5","57.5","30.20","209","1.8","6","0.00","0.00"
"09:49:59","55.1","39.6","55.7","30.20","236","1.4","7.2","0.00","0.00"
"09:54:59","56.4","37.1","48.2","30.20","257","4","8.4","0.00","0.00"
"09:59:56","56.8","36","45.6","30.20","274","4.8","13.2","0.00","0.00"
"10:04:56","57","36.5","46.3","30.20","268","4.2","8.4","0.00","0.00"
"10:09:59","57.1","35.6","44.5","30.20","289","4.8","13.2","0.00","0.00"
"10:14:59","56.8","36","45.6","30.20","239","5.2","10.8","0.00","0.00"
"10:19:59","57.5","37.1","46.4","30.19","278","5.6","15.6","0.00","0.00"
"10:24:58","57.2","36","45","30.19","292","6.6","16.1","0.00","0.00"
"10:29:58","58","37.1","45.5","30.19","306","5.9","15","0.00","0.00"
"10:34:58","58.7","37.2","44.7","30.19","262","6.2","15","0.00","0.00"
"10:39:57","58.6","35.7","42.3","30.19","344","10","24","0.00","0.00"
"10:44:58","57.8","35.2","42.7","30.19","333","10.7","24.2","0.00","0.00"
"10:49:57","58.2","36.1","43.6","30.19","327","7.6","24","0.00","0.00"
"10:54:57","59.1","37.3","44.2","30.19","319","6.8","19.6","0.00","0.00"
"10:59:57","58.6","36.3","43.3","30.19","326","9.2","23","0.00","0.00"
"11:04:57","58.8","36.6","43.4","30.19","267","8.3","16.1","0.00","0.00"
"11:09:56","58.5","36.1","43","30.19","333","8.1","24.2","0.00","0.00"
"11:14:56","58.3","36.5","44","30.19","337","8","17.3","0.00","0.00"
"11:19:57","58.6","37.2","44.8","30.19","276","7.5","20.7","0.00","0.00"
"11:24:57","58.1","36.9","45.1","30.19","321","11.4","24.2","0.00","0.00"
"11:29:58","57.5","36.6","45.6","30.19","335","8","16.1","0.00","0.00"
"11:34:58","57.3","37","46.6","30.19","318","6","13.2","0.00","0.00"
"11:39:59","58.2","38.4","47.5","30.19","281","3.9","10.4","0.00","0.00"
"11:44:59","58.2","37.4","45.7","30.19","294","4.8","9.2","0.00","0.00"
"11:49:59","57.7","37.7","47.2","30.19","277","4.1","15","0.00","0.00"
"11:54:59","58.9","38.8","47.3","30.19","296","5","15","0.00","0.00"
"11:59:56","59.9","38","44.1","30.19","335","6.7","15","0.00","0.00"
"12:04:56","60.3","38.6","44.5","30.19","278","7.1","14.4","0.00","0.00"
"12:09:58","60.7","38.5","43.9","30.19","265","7.4","15","0.00","0.00"
"12:14:59","60.2","38.3","44.2","30.19","306","5.6","15","0.00","0.00"
"12:19:56","61.3","39.8","45","30.18","259","4.4","18","0.00","0.00"
"12:24:56","62","38.8","42.4","30.18","317","6","18.4","0.00","0.00"
"12:29:57","61.5","37.9","41.6","30.18","286","6","18.4","0.00","0.00"
"12:34:57","60.6","37.8","42.6","30.17","277","6.2","13.2","0.00","0.00"
"12:39:57","61.1","37.3","41.3","30.17","320","8.6","17.3","0.00","0.00"
"12:44:57","60.9","37.2","41.4","30.17","290","8","17.3","0.00","0.00"
"12:49:57","61.5","38.4","42.4","30.17","255","6","18.4","0.00","0.00"
"12:54:57","61.8","37.4","40.3","30.17","274","7","20.7","0.00","0.00"
"12:59:57","61","36.5","40","30.17","264","6.9","16.1","0.00","0.00"
"13:04:57","61.7","37.7","40.8","30.17","265","5.4","16.1","0.00","0.00"
"13:09:56","62.5","37.9","40.1","30.17","272","6.4","16.1","0.00","0.00"
"13:14:56","62.7","37.9","39.8","30.17","251","4.8","15","0.00","0.00"
"13:19:57","62.4","36.8","38.4","30.17","293","6.5","19.6","0.00","0.00"
"13:24:57","62.1","36.7","38.8","30.17","283","6.2","16.1","0.00","0.00"
"13:29:57","62.3","37.1","39.2","30.17","298","4.8","12","0.00","0.00"
"13:34:57","64","38.2","38.5","30.16","289","4.4","12","0.00","0.00"
"13:39:57","63.4","36.3","36.4","30.16","312","6.4","15","0.00","0.00"
"13:44:58","63.1","35.6","35.8","30.16","319","9.1","19.6","0.00","0.00"
"13:49:58","62.6","34.4","34.8","30.16","310","8","19.2","0.00","0.00"
"13:54:58","63","34.7","34.8","30.16","279","7.7","18","0.00","0.00"
"13:59:58","62.5","33.7","34","30.16","275","8","20.7","0.00","0.00"
"14:04:58","62.5","33.6","33.8","30.16","280","6.9","16.8","0.00","0.00"
"14:09:57","62.7","34","34.2","30.16","316","7.7","21.9","0.00","0.00"
"14:14:56","63.1","33.8","33.4","30.16","330","8.4","17.3","0.00","0.00"
"14:19:58","63","34.2","34.1","30.16","329","10.6","21.9","0.00","0.00"
"14:24:58","63.4","34.3","33.8","30.16","314","6.1","19.6","0.00","0.00"
"14:29:58","63.5","32.7","31.5","30.16","329","8.5","18.4","0.00","0.00"
"14:34:59","63.5","33.9","33","30.15","334","7.1","19.6","0.00","0.00"
"14:39:59","64.4","34.2","32.5","30.15","340","7.4","17.3","0.00","0.00"
"14:44:59","64.2","34","32.5","30.15","327","7.1","18.4","0.00","0.00"
"14:49:59","63.7","32.7","31.4","30.15","313","8.7","18.4","0.00","0.00"
"14:54:59","63.1","31.9","31","30.15","318","6.8","17.3","0.00","0.00"
"14:59:59","63.6","32.5","31.2","30.16","328","6.9","15","0.00","0.00"
"15:04:59","64.1","33.1","31.5","30.16","340","8.8","21.9","0.00","0.00"
"15:09:58","63.7","32.5","31","30.16","342","8.6","20.7","0.00","0.00"
"15:14:59","63.3","31.5","30.3","30.16","307","7.3","23","0.00","0.00"
"15:19:59","62.7","31.7","31.2","30.16","315","6.3","19.2","0.00","0.00"
"15:24:59","63.2","31.2","30","30.16","336","8.2","19.6","0.00","0.00"
"15:29:56","63.6","31.3","29.7","30.16","321","4.8","12.7","0.00","0.00"
"15:34:56","64.1","32.1","30.1","30.16","308","5.4","15","0.00","0.00"
"15:39:56","63.8","31.5","29.7","30.16","335","6.6","21.9","0.00","0.00"
"15:44:57","63.6","31.2","29.6","30.16","318","5.8","14.4","0.00","0.00"
"15:49:57","63.4","30.9","29.4","30.16","326","5.9","15","0.00","0.00"
"15:54:57","63.4","31","29.5","30.16","304","4.2","10.8","0.00","0.00"
"15:59:57","63.5","31.2","29.6","30.16","279","4.5","15.6","0.00","0.00"
"16:04:57","63","30.1","28.9","30.16","294","4.9","16.1","0.00","0.00"
"16:09:56","63.1","30.9","29.8","30.16","323","5.4","18","0.00","0.00"
"16:14:56","63","30.3","29.1","30.16","326","7.4","18.4","0.00","0.00"
"16:19:56","63.1","30.9","29.7","30.16","324","6.5","16.1","0.00","0.00"
"16:24:57","63","30.5","29.4","30.16","317","5.1","16.1","0.00","0.00"
"16:29:57","63","30.7","29.7","30.16","319","4.6","13.2","0.00","0.00"
"16:34:57","63","30.8","29.8","30.16","354","3.8","9.6","0.00","0.00"
"16:39:58","63","29.9","28.7","30.16","311","4.7","12","0.00","0.00"
"16:44:58","62.5","29.1","28.2","30.16","321","5.1","10.8","0.00","0.00"
"16:49:58","62.4","29.7","29","30.16","333","5.4","14.4","0.00","0.00"
"16:54:58","62","29.5","29.2","30.16","325","5.1","15","0.00","0.00"
"16:59:58","61.8","29.8","29.8","30.16","308","4.5","8.4","0.00","0.00"
"17:04:58","61.7","29.8","29.9","30.16","295","3.9","13.2","0.00","0.00"
"17:09:57","61.5","29","29.1","30.16","325","6.6","15","0.00","0.00"
"17:14:58","61.3","29","29.3","30.17","332","4.4","11.5","0.00","0.00"
"17:19:58","61.1","29.3","29.8","30.17","328","4.4","9.2","0.00","0.00"
"17:24:59","60.7","29.2","30.2","30.17","317","4","12","0.00","0.00"
"17:29:59","60.4","29.3","30.7","30.17","303","2.4","6","0.00","0.00"
"17:34:59","60.1","29.6","31.4","30.17","335","1.8","7.2","0.00","0.00"
"17:39:55","59.6","29.4","31.5","30.17","342","3.2","8.4","0.00","0.00"
"17:44:56","59.3","29.6","32.2","30.17","334","4.3","10.8","0.00","0.00"
"17:49:57","59","29.6","32.7","30.17","331","1.9","4.6","0.00","0.00"
"17:54:58","58.6","29.6","33","30.17","297","1.4","4.8","0.00","0.00"
"17:59:59","58.2","29.3","33.2","30.18","281","1.8","3.6","0.00","0.00"
"18:04:56","57.8","29.4","33.6","30.18","311","2.3","6","0.00","0.00"
"18:09:59","57.5","29.4","34.1","30.18","326","2.2","6","0.00","0.00"
"18:14:57","57.2","29.6","34.8","30.18","335","1.2","4.8","0.00","0.00"
"18:19:59","56.7","29.6","35.4","30.18","335","0.8","2.4","0.00","0.00"
"18:24:56","56.2","29.6","36","30.18","335","0.5","2.4","0.00","0.00"
"18:29:57","55.8","29.6","36.7","30.19","335","0.3","1.2","0.00","0.00"
"18:34:58","55.2","30.1","38.2","30.19","335","0.1","1.2","0.00","0.00"
"18:39:59","54.5","29.7","38.5","30.19","335","0","1.2","0.00","0.00"
"18:44:56","53.9","29.7","39.3","30.19","335","1.1","3.6","0.00","0.00"
"18:49:56","53.3","30.2","41","30.19","335","2","3.6","0.00","0.00"
"18:54:57","52.7","30.2","42","30.19","335","2.6","3.6","0.00","0.00"
"18:59:57","52.3","29.9","42","30.19","338","2.2","3.6","0.00","0.00"
"19:04:58","52.2","30.2","42.7","30.19","335","1.9","6","0.00","0.00"
"19:09:57","52","30.5","43.5","30.19","357","1.4","5.8","0.00","0.00"
"19:14:59","51.6","30.2","43.7","30.20","355","0.6","3.6","0.00","0.00"
"19:19:56","51.3","30.6","44.9","30.20","355","0.5","2.4","0.00","0.00"
"19:24:57","50.7","30.6","45.8","30.20","355","0.2","1.2","0.00","0.00"
"19:29:58","50.1","31","47.8","30.21","355","0.1","1.2","0.00","0.00"
"19:34:59","49.6","30.2","47.1","30.21","355","0.3","2.4","0.00","0.00"
"19:39:57","49.3","30.5","48.4","30.21","355","0.1","2.3","0.00","0.00"
"19:44:59","48.9","31.3","50.5","30.22","355","0.1","1.2","0.00","0.00"
"19:49:56","48.4","30.7","50.1","30.22","355","0.6","3.6","0.00","0.00"
"19:54:57","48.1","30.9","51.1","30.22","355","0.3","3.5","0.00","0.00"
"19:59:57","47.8","31.5","53","30.22","355","0","0","0.00","0.00"
"20:04:58","47.3","31.7","54.5","30.22","350","0.4","2.4","0.00","0.00"
"20:09:58","46.9","30.9","53.6","30.22","346","0.6","2.4","0.00","0.00"
"20:14:56","46.7","30.3","52.6","30.22","346","0.2","2.3","0.00","0.00"
"20:19:58","46.5","31.5","55.8","30.22","346","0.2","1.2","0.00","0.00"
"20:24:59","46.1","32","57.6","30.22","346","0.2","1.2","0.00","0.00"
"20:29:57","45.6","31.6","57.8","30.23","346","0","0","0.00","0.00"
"20:34:58","45.2","31.1","57.7","30.23","346","0","0","0.00","0.00"
"20:39:56","44.8","31.1","58.6","30.23","346","0","0","0.00","0.00"
"20:44:57","44.3","30.8","58.7","30.23","346","0","0","0.00","0.00"
"20:49:59","44","30.3","58.2","30.23","346","0","0","0.00","0.00"
"20:54:57","43.8","29.8","57.5","30.23","346","0.3","2.4","0.00","0.00"
"20:59:58","44.1","29.3","55.9","30.24","346","1.2","2.4","0.00","0.00"
"21:04:59","44.6","29.5","55.1","30.24","354","1.3","4.8","0.00","0.00"
"21:09:59","45.5","29.6","53.8","30.24","360","0.7","2.4","0.00","0.00"
"21:14:56","46.3","30.3","53.6","30.24","360","0.5","1.2","0.00","0.00"
"21:19:58","46.5","30.3","53","30.23","360","0.7","2.4","0.00","0.00"
"21:24:59","46.7","30.7","53.5","30.23","2","0.6","2.4","0.00","0.00"
"21:29:57","46.3","30.9","54.8","30.24","12","0.1","1.2","0.00","0.00"
"21:34:58","45.9","30.3","54.2","30.24","9","1.1","4.8","0.00","0.00"
"21:39:56","46","29.9","53.2","30.24","348","2","8.4","0.00","0.00"
"21:44:57","46.3","30.1","53","30.24","350","3","6","0.00","0.00"
"21:49:59","46.6","30.4","53","30.23","355","2.9","6","0.00","0.00"
"21:54:56","46.9","30.5","52.9","30.23","344","2.6","7.2","0.00","0.00"
"21:59:57","46.8","30.4","52.7","30.24","356","1.8","4.8","0.00","0.00"
"22:04:59","46.6","30.4","53","30.24","355","0.7","3.6","0.00","0.00"
"22:09:58","46.3","30.3","53.4","30.24","359","0.5","4.8","0.00","0.00"
"22:14:56","46","30.3","54","30.24","355","0.6","3.6","0.00","0.00"
"22:19:58","45.8","30.1","54","30.24","355","2","6","0.00","0.00"
"22:24:59","45.7","30","54","30.24","357","2.5","4.8","0.00","0.00"
"22:29:57","45.9","29.9","53.5","30.24","5","2.1","4.6","0.00","0.00"
"22:34:58","46","29.8","53","30.24","355","2.2","4.8","0.00","0.00"
"22:39:56","46","29.7","52.8","30.24","347","2.1","6","0.00","0.00"
"22:44:57","45.9","29.7","53","30.24","343","2.1","4.8","0.00","0.00"
"22:49:58","46","29.9","53.2","30.24","338","3.4","7.2","0.00","0.00"
"22:54:56","46","30.1","53.7","30.24","347","3.5","4.8","0.00","0.00"
"22:59:57","45.9","30.2","54","30.24","351","3.5","6","0.00","0.00"
"23:04:58","45.9","30.2","54","30.24","353","3.5","6","0.00","0.00"
"23:09:57","45.9","30.2","53.8","30.24","349","3.5","7.2","0.00","0.00"
"23:14:59","46","30.1","53.5","30.24","345","3.7","8.4","0.00","0.00"
"23:19:56","46","30","53.5","30.24","348","3.4","8.4","0.00","0.00"
"23:24:58","45.9","30","53.6","30.24","336","2.5","8.4","0.00","0.00"
"23:29:59","45.9","29.9","53.5","30.24","346","1.5","5.8","0.00","0.00"
"23:34:57","45.7","30.1","54.4","30.24","338","0.7","2.4","0.00","0.00"
"23:39:58","44.9","30.2","56.2","30.24","338","0.5","2.4","0.00","0.00"
"23:44:59","43.9","30","57.8","30.25","338","0.3","2.4","0.00","0.00"
"23:49:57","43.2","29.7","59","30.25","338","0","0","0.00","0.00"
"23:54:59","42.7","29.5","59.3","30.25","338","0","0","0.00","0.00"
